Weather History for KJVL - December, 2012

Change the Weather History Date:

Thursday, December 27, 2012

  Actual Average Record
Temperature  
Mean Temperature 26 °F -  
Max Temperature 28 °F 30 °F 50 °F (2003)
Min Temperature 24 °F 15 °F -10 °F (1990)
Degree Days  
Heating Degree Days 39    
Moisture  
Dew Point 20 °F    
Average Humidity 74    
Maximum Humidity 80    
Minimum Humidity 69    
Precipitation  
Precipitation 0.00 in - - ()
Sea Level Pressure  
Sea Level Pressure 30.14 in    
Wind  
Wind Speed 7 mph (NNE)    
Max Wind Speed 13 mph    
Max Gust Speed 18 mph    
Visibility 10 miles    
Events      
Averages and records for this station are not official NWS values.
T = Trace of Precipitation, MM = Missing Value Source: NWS Daily Summary

Daily Weather History Graph

Daily Weather History Graph

Search for Another Location

Airport or City:

Trip Planner

Search our weather history database for the weather conditions in past years. The results will help you decide how hot, cold, wet, or windy it might be!

Date:

Astronomy

Dec. 27, 2012 Rise Set
Actual Time 7:25 AM CST 4:29 PM CST
Civil Twilight 6:53 AM CST 5:01 PM CST
Nautical Twilight 6:17 AM CST 5:37 PM CST
Astronomical Twilight 5:43 AM CST 6:11 PM CST
Moon 4:13 PM CST (12/27) 6:35 AM CST (12/27)
Length of Visible Light 10h 08m
Length of Day
9h 04m
Full, 100% of the Moon is Illuminated
Dec 27
Full
Dec 28
Full
Jan 4
Last Quarter
Jan 11
New
Jan 18
First Quarter

Hourly Weather History & Observations

Time (CST) Temp. Windchill Dew Point Humidity Pressure Visibility Wind Dir Wind Speed Gust Speed Precip Events Conditions
12:15 AM 26.6 °F 18.2 °F 19.4 °F 74% 30.13 in 10.0 mi North 8.1 mph - N/A   Overcast
12:35 AM 26.6 °F 19.1 °F 19.4 °F 74% 30.12 in 10.0 mi North 6.9 mph - N/A   Overcast
12:55 AM 26.6 °F 19.1 °F 17.6 °F 69% 30.12 in 10.0 mi North 6.9 mph - N/A   Overcast
1:15 AM 26.6 °F 17.5 °F 19.4 °F 74% 30.13 in 10.0 mi North 9.2 mph - N/A   Overcast
1:35 AM 26.6 °F 18.2 °F 19.4 °F 74% 30.13 in 10.0 mi North 8.1 mph - N/A   Overcast
1:55 AM 26.6 °F 18.2 °F 19.4 °F 74% 30.14 in 10.0 mi NW 8.1 mph - N/A   Overcast
2:15 AM 26.6 °F 19.1 °F 19.4 °F 74% 30.15 in 10.0 mi NNW 6.9 mph - N/A   Overcast
2:35 AM 26.6 °F 22.6 °F 19.4 °F 74% 30.15 in 10.0 mi North 3.5 mph - N/A   Overcast
2:55 AM 26.6 °F 18.2 °F 19.4 °F 74% 30.15 in 10.0 mi NNW 8.1 mph - N/A   Overcast
3:15 AM 26.6 °F 19.1 °F 19.4 °F 74% 30.15 in 10.0 mi North 6.9 mph - N/A   Overcast
3:35 AM 26.6 °F 21.2 °F 19.4 °F 74% 30.15 in 10.0 mi North 4.6 mph - N/A   Overcast
3:55 AM 26.6 °F 20.0 °F 19.4 °F 74% 30.15 in 10.0 mi North 5.8 mph - N/A   Overcast
4:35 AM 26.6 °F 18.2 °F 19.4 °F 74% 30.15 in 10.0 mi North 8.1 mph - N/A   Overcast
5:45 AM 24.8 °F 17.9 °F 17.6 °F 74% 30.16 in 10.0 mi NNW 5.8 mph - N/A   Overcast
7:45 AM 24.8 °F 16.1 °F 19.4 °F 80% 30.17 in 10.0 mi North 8.1 mph - N/A   Overcast
8:45 AM 26.6 °F - 19.4 °F 74% 30.18 in 10.0 mi Calm Calm - N/A   Overcast
9:45 AM 26.6 °F 19.1 °F 19.4 °F 74% 30.19 in 10.0 mi North 6.9 mph - N/A   Overcast
10:45 AM 28.4 °F 18.0 °F 19.4 °F 69% 30.17 in 10.0 mi NNE 12.7 mph 18.4 mph N/A   Overcast
1:45 PM 28.4 °F 22.2 °F 19.4 °F 69% 30.14 in 10.0 mi North 5.8 mph - N/A   Overcast
2:45 PM 28.4 °F 22.2 °F 19.4 °F 69% 30.14 in 10.0 mi NNE 5.8 mph - N/A   Overcast
3:45 PM 28.4 °F 22.2 °F 19.4 °F 69% 30.15 in 10.0 mi North 5.8 mph - N/A   Overcast
4:45 PM 26.6 °F 16.2 °F 19.4 °F 74% 30.15 in 10.0 mi NNE 11.5 mph - N/A   Overcast
5:45 PM 26.6 °F 16.2 °F 21.2 °F 80% 30.14 in 10.0 mi NNE 11.5 mph - N/A   Overcast
6:45 PM 26.6 °F 18.2 °F 19.4 °F 74% 30.15 in 10.0 mi NNE 8.1 mph - N/A   Overcast
7:45 PM 26.6 °F 16.2 °F 19.4 °F 74% 30.14 in 10.0 mi NE 11.5 mph - N/A   Overcast
8:15 PM 28.4 °F 21.2 °F 21.2 °F 74% 30.12 in 10.0 mi NE 6.9 mph - N/A   Overcast
8:35 PM 28.4 °F 23.3 °F 21.2 °F 74% 30.13 in 10.0 mi NE 4.6 mph - N/A   Overcast
8:45 PM 26.6 °F 19.1 °F 19.4 °F 74% 30.13 in 10.0 mi NE 6.9 mph - N/A   Overcast
8:55 PM 28.4 °F 22.2 °F 21.2 °F 74% 30.13 in 10.0 mi NE 5.8 mph - N/A   Overcast
9:15 PM 28.4 °F - 21.2 °F 74% 30.13 in 10.0 mi Calm Calm - N/A   Overcast
9:35 PM 28.4 °F 24.6 °F 21.2 °F 74% 30.13 in 10.0 mi NNE 3.5 mph - N/A   Overcast
9:55 PM 28.4 °F 24.6 °F 21.2 °F 74% 30.13 in 10.0 mi NE 3.5 mph - N/A   Overcast
10:15 PM 28.4 °F 24.6 °F 21.2 °F 74% 30.13 in 10.0 mi NE 3.5 mph - N/A   Overcast
10:35 PM 28.4 °F 23.3 °F 21.2 °F 74% 30.12 in 10.0 mi NE 4.6 mph - N/A   Overcast
10:55 PM 26.6 °F 21.2 °F 21.2 °F 80% 30.11 in 10.0 mi ENE 4.6 mph - N/A   Overcast
11:15 PM 26.6 °F 19.1 °F 21.2 °F 80% 30.10 in 10.0 mi ENE 6.9 mph - N/A   Overcast
11:35 PM 26.6 °F 20.0 °F 21.2 °F 80% 30.10 in 10.0 mi ENE 5.8 mph - N/A   Overcast
11:55 PM 26.6 °F 20.0 °F 21.2 °F 80% 30.09 in 10.0 mi ENE 5.8 mph - N/A   Overcast